Погода в Сушках

Россия / Рязанская область     54°16′43″N   40°22′28″E
темп.,
°C
ветер,
м/с
пор.,
м/с
влажн.,
%
обл.,
%
осадки,
мм/ч
давл.,
гПа
погр.,
м
22 апреля, чт
чт2200:00+5ю3891100 0.0 1014273
03:00+5юз3694100 0.1 1015320
06:00+5ююз268885 0.0 1017245
09:00+8ююз56735 0.0 1018735
12:00+11юз786087 0.1 10181534
15:00+12юз5859100 0.2 10181621
18:00+12ю486437 0.0 1018407
21:00+8ю4118322 0.0 1019198
23 апреля, пт
пт2300:00+7ю412855 0.0 1019229
03:00+6ю410905 0.1 1019174
06:00+6ю4118819 0.0 1019211
09:00+13ю610646 0.0 1019551
12:00+16ю7943100 0.2 10172594
15:00+16ю794690 0.2 10161930
18:00+14ююв596257 0.0 1015381
21:00+10юв714775 0.0 1014360
24 апреля, сб
сб2400:00+9ююв6148655 0.1 1012380
03:00+8юв6149026 0.1 1009362
06:00+8ю61292100 0.2 1008621
09:00+3з5896100 2.5 1009500
12:00+7з4774100 1.0 10091010
15:00+10зсз675693 1.9 10081572
18:00+8зсз57635 0.6 1008857
21:00+5з237219 0.7 100924
25 апреля, вс
вс2500:00+4юз478499 0.1 1009209
03:00+3зюз5993100 1.6 1010494
06:00+3з5108598 0.3 1011479
09:00+5з79685 0.3 10121074
12:00+8зюз81151100 0.5 10132208
15:00+8зюз91348100 0.7 10132473
18:00+7зюз7115747 0.3 10131389
21:00+3юз410735 0.3 1014221
26 апреля, пн
пн2600:00+2юз38836 0.0 1015175
03:00+1ююз488820 0.0 1016187
06:00+1юз36915 0.0 1016175
09:00+6юз35605 0.0 1016953
12:00+9юз464795 0.1 10142133
15:00+9ю445198 0.1 10131545
18:00+5з3488100 1.0 1012668
21:00+4юз2592100 1.4 1011445